Theta_e
310 311 311 312 312 312 313 314 314 314 315 315 315 315 314 315 312 304 299 306 306 312 308 298 297 295 292 289 291 290 280 279 282 281 282 285 284 287 289 286 287 291 292 297 298
310 311 311 311 311 312 313 315 315 314 314 314 314 314 314 315 304 300 309 311 311 310 298 295 291 292 286 287 287 284 279 279 284 282 282 284 285 285 285 285 285 288 293 297 297
311 311 311 311 310 312 313 313 313 313 313 313 313 313 313 310 295 297 310 309 308 304 297 295 292 290 284 285 285 284 280 283 284 285 286 286 285 286 284 283 285 286 289 293 295
311 311 311 311 310 311 312 313 312 312 312 312 312 313 313 302 282 297 307 309 307 300 296 293 289 285 281 281 286 280 285 285 286 288 287 285 286 284 285 286 290 290 291 291 293
311 310 310 311 311 312 312 312 311 311 311 311 312 312 304 292 291 301 308 305 299 297 293 291 288 286 281 283 285 281 283 287 288 288 287 288 285 285 286 290 290 290 292 291 292
309 310 311 311 311 311 311 311 311 312 312 312 311 311 296 284 300 300 299 298 295 294 291 291 289 290 285 284 282 285 286 286 287 287 287 285 285 285 287 289 288 290 290 291 292
309 309 310 311 310 310 311 311 312 312 312 310 309 305 294 291 296 295 295 293 294 293 290 292 292 288 287 283 288 286 282 283 284 285 284 286 281 282 287 289 288 289 291 292 293
309 309 310 310 310 310 311 311 311 311 309 308 307 298 288 300 296 294 294 293 295 294 294 294 294 290 286 288 286 281 281 276 282 285 286 285 277 285 288 287 287 287 289 290 292
310 311 310 310 310 311 310 311 310 309 307 307 297 293 285 298 290 294 292 291 293 294 296 298 293 285 285 279 273 274 271 275 278 285 284 283 279 284 287 287 287 288 289 290 290
311 310 310 311 311 310 308 308 305 300 298 298 292 283 286 285 290 293 292 293 291 291 289 289 284 277 276 272 267 272 274 278 278 281 283 281 280 284 287 287 287 287 289 289 290
311 310 310 311 310 307 298 290 285 284 288 283 283 283 286 290 292 290 293 292 291 286 278 283 277 271 276 278 279 278 278 277 280 284 282 281 281 283 287 287 287 288 288 289 290
310 310 310 311 310 305 295 289 287 288 280 288 287 286 288 289 284 287 293 285 280 273 280 274 268 280 282 282 280 278 278 277 280 283 282 281 280 284 286 285 282 284 285 286 288
310 310 311 310 308 298 292 291 294 291 281 284 284 285 286 287 283 284 289 286 277 277 276 277 279 284 282 280 276 276 275 276 277 281 282 279 278 280 282 283 283 284 284 284 285
309 310 310 308 298 294 290 295 293 290 269 276 280 283 286 286 282 290 291 287 283 274 281 277 282 281 280 277 278 273 281 281 279 275 271 279 269 277 280 280 281 282 282 282 284
310 311 307 304 294 291 293 294 291 286 265 278 280 288 286 283 284 286 291 287 281 275 274 275 279 279 275 280 282 277 282 279 278 275 275 269 271 272 277 275 277 280 281 282 283
310 310 306 299 293 292 293 291 287 272 264 270 279 279 277 282 283 285 286 289 286 281 280 276 283 281 281 283 283 283 276 275 273 272 264 267 269 268 271 274 276 279 281 281 283
311 305 298 298 292 292 291 285 272 267 272 269 273 278 276 277 280 281 281 280 275 269 267 274 273 279 283 279 281 279 268 260 261 261 262 266 272 266 275 276 276 277 279 281 283
305 300 296 294 292 291 286 277 265 263 263 277 277 277 274 278 277 277 278 275 279 275 267 265 268 271 281 279 274 273 273 265 260 262 266 270 266 272 279 278 278 279 280 281 282
302 295 293 292 291 292 280 267 269 268 276 276 275 267 265 276 273 270 273 274 279 274 266 268 267 279 280 283 279 272 269 277 271 265 266 268 272 276 277 276 276 277 278 279 281
295 293 291 293 292 288 278 274 270 278 279 278 268 271 263 265 270 267 271 277 279 279 277 272 269 272 276 282 279 273 276 267 270 262 258 262 258 265 270 272 274 275 276 277 280
295 288 292 293 293 284 272 271 273 279 280 277 273 266 272 265 270 265 270 277 279 278 280 272 273 271 277 270 274 272 269 271 272 272 265 262 263 274 273 274 273 274 276 278 279
292 285 292 292 281 278 273 273 279 279 281 280 279 276 270 271 270 264 269 273 279 275 274 278 273 271 269 278 280 275 275 275 270 267 271 269 267 277 276 275 275 275 276 278 280
286 285 293 292 278 276 275 275 278 279 279 278 276 279 277 268 267 275 275 281 282 278 274 278 267 267 270 275 278 275 278 277 276 275 270 267 268 278 276 275 276 275 276 277 279
287 282 283 285 284 279 275 273 274 280 279 280 279 280 278 270 275 268 276 280 282 280 284 282 275 267 266 270 273 273 276 276 274 266 269 270 271 274 273 273 274 275 276 277 278
289 284 283 277 279 279 279 277 274 275 280 280 276 278 275 268 271 269 277 278 280 281 279 274 262 271 271 272 273 275 272 273 269 272 270 272 272 273 274 274 274 276 276 276 276
286 284 284 282 282 280 281 277 277 276 277 276 274 277 278 270 275 272 276 277 275 276 276 276 262 267 263 275 276 276 278 274 273 271 269 272 273 278 278 277 275 275 276 275 275
290 289 289 284 280 280 279 280 279 279 279 281 279 278 277 278 278 278 279 279 278 275 274 270 263 259 261 269 268 267 270 269 271 270 271 270 275 278 276 275 274 274 275 275 276
Wind_Speed
9 10 11 13 14 13 12 13 11 11 14 15 16 16 16 17 10 6 8 7 10 16 13 9 10 13 5 5 5 2 3 2 4 2 5 5 6 5 3 5 4 5 4 6 13
9 10 11 14 13 12 14 15 15 14 13 14 16 17 17 15 2 7 6 11 14 16 7 9 10 10 5 7 5 4 3 7 4 2 4 5 5 5 6 9 5 16 13 7 17
8 8 10 12 12 13 15 14 14 14 13 14 15 16 17 6 2 4 7 10 13 11 6 3 4 4 5 5 6 5 5 1 5 4 5 7 11 4 5 12 8 11 11 21 15
8 7 10 12 11 12 13 14 14 14 14 14 15 16 17 2 2 3 4 9 9 8 7 6 6 5 4 5 4 6 5 4 7 5 6 8 6 8 9 17 14 13 17 16 19
7 10 12 13 12 13 14 15 14 13 12 12 12 14 6 5 2 5 6 8 5 4 6 5 7 4 3 4 7 4 5 5 9 14 11 15 18 13 22 20 12 12 16 20 18
7 9 12 12 14 15 15 14 13 12 11 10 10 9 2 5 2 5 6 3 4 2 2 3 1 3 2 2 1 4 8 15 14 19 13 19 17 2 17 7 10 10 13 16 17
8 10 12 14 14 13 13 14 13 12 11 9 6 2 4 4 1 5 7 4 1 1 1 0 2 4 4 5 4 7 11 8 10 6 7 4 6 13 20 10 12 16 13 13 16
10 11 12 13 14 14 14 13 13 10 7 6 5 2 2 1 1 6 6 4 6 3 2 4 1 1 1 5 6 5 4 7 4 7 7 5 12 7 12 9 17 11 14 9 12
8 10 11 14 15 15 17 14 8 4 4 3 3 2 2 4 6 7 2 4 6 4 4 1 3 1 4 4 5 6 6 9 9 4 7 9 14 3 4 12 23 24 19 16 10
7 9 11 13 15 17 13 6 7 5 5 1 3 6 5 6 5 6 4 2 3 5 5 5 5 3 4 5 4 10 12 14 17 6 8 15 28 24 21 20 22 22 20 16 15
5 9 10 13 14 16 6 4 7 5 9 4 3 2 5 8 2 4 3 4 4 5 4 3 5 2 6 7 8 11 17 22 20 18 20 17 22 21 18 16 17 20 17 14 13
5 8 11 10 10 15 4 6 2 4 2 2 3 2 3 3 4 5 5 6 7 2 6 7 3 6 5 8 7 11 21 23 18 9 11 18 22 25 22 6 7 12 9 9 8
5 7 9 8 7 6 5 3 1 3 3 4 2 2 4 4 4 6 5 3 4 2 3 3 6 6 3 10 8 7 11 16 19 17 18 21 15 8 4 2 11 13 12 11 12
6 6 5 6 4 0 3 4 2 2 7 7 4 3 4 2 3 4 2 1 1 2 5 7 4 4 9 6 5 12 8 18 22 16 8 7 8 4 10 11 16 17 16 15 16
5 4 4 6 3 2 1 3 2 4 5 4 7 4 6 5 4 3 5 1 3 4 6 8 4 5 6 7 10 11 17 22 21 15 11 7 3 3 6 14 23 21 23 23 20
5 3 5 3 3 0 2 2 4 9 5 6 4 7 7 6 6 7 6 5 2 3 2 8 4 3 5 12 12 11 10 16 2 2 2 4 2 2 6 13 20 20 20 20 22
6 7 5 1 2 1 2 4 8 7 3 7 4 5 1 5 5 7 5 10 5 8 8 9 4 4 4 8 5 16 7 6 9 6 6 4 4 4 2 10 13 20 20 20 20
12 8 5 3 2 2 3 8 5 3 6 2 2 3 2 6 3 6 3 4 3 2 2 5 11 4 7 2 8 8 3 0 7 5 12 4 3 3 3 14 15 16 18 18 19
11 3 3 3 3 3 6 5 9 8 4 2 2 6 6 3 1 6 2 2 2 3 4 3 8 6 3 4 3 10 8 6 6 5 4 4 4 5 18 19 19 18 17 17 17
4 4 3 4 3 4 6 6 4 2 4 3 4 3 2 5 5 5 2 4 2 3 3 3 8 4 8 6 5 6 5 7 4 7 7 7 4 6 21 25 20 20 20 17 16
4 3 2 4 2 4 4 6 4 4 1 4 5 3 4 3 2 2 4 4 1 1 4 4 2 9 2 2 3 7 6 3 2 2 4 6 5 6 20 19 19 17 16 16 15
4 2 3 2 3 2 3 4 3 3 1 2 3 4 6 4 2 2 5 7 2 4 1 3 2 7 9 4 1 5 7 3 3 6 4 3 5 14 17 15 15 15 14 14 13
4 3 2 3 4 2 2 2 2 3 4 5 4 4 4 4 1 4 3 4 2 3 2 1 3 6 10 5 3 6 14 10 5 3 3 5 6 11 15 16 15 15 15 14 12
4 4 1 0 2 3 4 4 3 1 3 3 3 2 3 2 3 4 3 3 2 2 3 3 2 6 6 6 2 6 11 10 5 2 9 4 12 14 17 19 17 15 14 13 12
1 2 3 4 3 4 3 6 4 5 4 4 2 6 6 2 1 5 4 4 2 3 2 4 3 3 7 11 4 6 5 8 5 7 3 12 13 10 17 15 15 14 14 15 15
6 5 2 3 2 7 5 6 9 5 8 5 5 5 8 6 8 6 4 3 4 3 3 1 3 1 6 5 7 5 5 6 4 6 4 11 5 13 12 13 16 15 15 14 13
1 2 3 8 3 5 6 7 10 8 6 3 8 5 7 14 6 4 3 1 2 2 1 2 2 4 6 6 4 5 5 2 3 2 3 6 6 13 7 15 16 17 16 15 15
Wind_Direction
7 12 9 360 351 351 350 344 341 341 346 356 351 349 352 351 351 11 44 357 354 348 351 336 7 355 17 27 2 72 73 251 268 236 297 321 1 314 258 238 326 282 304 274 323
15 7 360 354 348 342 340 348 5 3 354 348 344 342 345 345 9 49 353 359 6 358 6 2 352 351 16 6 9 69 135 226 214 228 264 288 284 305 311 302 284 297 287 287 324
358 356 352 350 348 339 338 348 347 345 345 343 339 336 338 350 73 344 342 10 12 12 15 355 2 30 33 21 2 329 227 312 264 290 315 300 299 229 258 275 230 268 288 300 305
344 338 338 334 335 331 329 333 334 335 337 337 335 335 333 59 71 298 327 355 15 17 31 11 10 32 34 357 346 336 282 297 302 351 334 295 269 281 269 259 251 270 286 293 298
353 337 333 333 334 327 327 329 329 330 333 334 334 334 355 46 46 319 318 339 10 12 37 31 37 12 14 319 323 221 291 298 298 297 286 280 276 274 269 269 259 255 268 273 277
344 337 336 337 334 328 330 332 333 334 332 332 335 342 51 77 278 341 318 334 3 26 21 54 63 275 275 287 259 304 295 291 285 282 276 267 270 263 271 273 271 261 259 265 266
341 329 331 331 332 330 329 326 326 329 334 341 351 69 65 158 6 347 8 320 299 47 23 221 152 44 359 309 307 275 294 291 270 264 254 270 269 223 255 276 258 275 269 259 262
333 326 334 336 334 332 327 322 320 325 341 1 23 39 97 320 275 14 339 332 345 6 43 292 52 92 150 293 304 324 315 329 312 296 264 124 262 265 249 267 272 255 271 249 250
330 335 343 339 337 334 327 321 327 331 335 7 20 24 4 344 7 317 335 319 320 359 8 95 72 76 3 343 356 12 293 286 311 264 270 198 289 197 298 281 282 281 271 269 251
325 337 341 340 341 339 338 10 28 26 -0 58 51 43 15 313 304 316 295 338 351 353 15 34 44 35 11 64 287 291 296 281 285 279 267 275 275 280 279 272 270 271 272 269 275
321 334 335 340 346 352 13 18 19 354 40 97 295 277 306 298 302 320 333 12 21 47 25 15 32 241 263 219 245 279 277 282 279 282 284 282 276 287 284 280 286 276 272 274 274
314 328 331 340 354 3 52 70 117 205 3 3 309 286 269 348 322 310 7 36 55 357 339 16 232 220 269 267 255 261 282 288 287 263 289 287 284 287 290 328 9 5 356 333 316
301 320 330 340 0 35 52 69 24 142 83 327 346 330 317 17 323 294 18 6 113 344 58 287 255 319 264 296 291 248 266 289 282 307 293 274 280 279 87 93 8 0 346 335 323
291 312 335 342 59 227 51 330 22 100 71 306 336 5 346 334 303 269 298 290 295 248 323 250 276 299 304 265 290 307 253 297 294 310 301 44 295 35 345 348 347 344 341 330 321
262 301 36 64 141 61 319 327 79 53 29 297 314 304 338 53 315 354 342 335 278 268 76 258 313 1 311 297 331 268 312 290 287 283 289 318 246 13 9 347 340 337 336 330 326
240 173 129 48 65 80 347 15 52 42 268 337 325 353 14 3 347 314 357 0 300 332 286 252 312 254 243 295 295 315 305 317 20 136 328 261 152 28 16 335 325 327 327 326 324
171 120 79 19 134 53 54 49 33 114 336 307 331 5 105 316 332 13 354 26 29 13 3 331 284 284 260 307 317 353 342 349 358 7 238 282 292 227 18 357 331 324 325 326 326
139 106 48 63 359 85 62 48 84 218 230 298 19 340 27 3 353 332 10 21 35 87 25 34 335 5 344 344 295 339 31 293 310 317 297 338 276 265 311 357 335 327 327 330 334
124 55 65 9 8 61 67 54 207 199 166 146 68 57 316 341 178 7 4 241 216 158 125 359 278 302 199 286 65 311 3 287 256 234 290 284 289 325 341 349 345 338 338 338 336
105 91 1 335 338 63 71 239 192 236 128 107 136 133 226 285 6 50 352 247 328 182 146 242 290 242 295 357 352 149 301 357 335 350 312 308 315 287 337 336 342 342 341 340 338
74 99 68 332 52 59 166 234 222 232 150 132 173 154 216 253 205 285 250 277 185 311 153 141 212 288 346 27 283 351 355 337 231 317 299 305 307 326 343 336 334 337 340 337 340
113 125 2 273 70 308 149 195 222 160 137 131 132 150 175 197 265 257 245 214 184 162 199 210 245 279 251 234 143 144 2 297 303 311 256 249 290 9 335 335 333 339 341 343 347
104 108 345 324 153 219 260 285 242 162 195 165 184 207 154 197 335 222 246 261 296 137 166 152 310 324 349 24 9 24 347 340 282 276 289 315 297 18 339 350 348 349 351 350 348
133 124 45 342 65 174 158 218 218 284 204 164 141 125 161 268 208 269 260 282 355 167 45 208 227 186 206 222 71 312 337 355 323 356 311 290 304 341 2 352 352 357 358 355 359
92 141 205 174 235 179 194 143 138 206 232 177 25 209 175 200 272 231 243 293 65 1 70 94 205 297 265 266 174 242 280 346 359 327 334 313 326 344 3 355 348 356 6 9 12
143 149 178 130 149 150 190 213 188 196 162 215 196 203 178 194 197 206 175 206 233 350 76 54 269 26 294 302 209 249 291 357 310 317 323 320 324 1 3 1 6 5 4 12 13
131 34 120 147 167 151 209 198 206 151 225 192 191 138 198 238 220 226 231 268 221 135 97 67 91 49 275 340 9 337 233 200 243 307 265 354 315 332 343 14 7 358 5 19 21